Dewpoint
56 56 56 56 55 55 55 55 55 55 56 56 56 55 56 56 56 56 56 56 56 56 55 56 56 56 56 57 56 57 57 54 53 52 51 44 50 52 65 63 65 66 71 64 65 60 58 54 51 48 48 51 53 55 65 68 68 67 61 58 55 58 59 62 61 60 61 60 63 65 65 63 62 64 67 68 64 63 64 63 63 63 64 65 66 66 67 68
55 56 55 55 55 55 55 55 55 55 55 55 55 55 55 56 56 56 56 56 56 56 55 56 56 56 57 57 56 57 56 55 52 52 51 53 59 61 64 65 69 67 69 55 59 53 54 52 50 47 49 51 57 56 66 66 68 63 60 59 56 61 62 65 64 63 62 61 64 65 67 63 62 64 65 63 62 62 61 61 63 63 64 66 66 66 67 67
55 55 55 55 55 55 55 55 55 55 55 55 55 55 56 56 56 56 56 56 56 56 55 56 56 56 57 57 57 57 56 52 53 50 43 61 62 64 65 70 70 64 64 46 51 51 45 49 49 48 52 55 56 56 63 66 66 66 60 57 59 63 63 63 64 63 65 64 64 65 66 65 64 65 64 62 61 61 60 60 62 63 63 65 65 66 67 67
55 55 55 56 55 55 56 56 56 56 56 56 55 56 56 56 56 56 56 55 55 55 55 55 55 56 57 57 57 56 55 53 46 45 49 67 66 67 67 67 68 67 61 47 40 49 51 51 52 53 55 56 58 60 62 67 64 65 62 59 60 62 61 63 67 66 65 65 64 65 65 63 64 66 66 62 59 60 60 61 61 62 63 64 65 66 66 66
55 55 55 55 55 56 56 56 56 56 56 56 56 56 55 55 56 55 55 55 55 55 55 56 56 56 56 57 58 56 51 40 34 47 51 72 68 65 68 69 69 65 54 43 43 48 52 54 53 55 57 57 57 61 61 65 64 62 60 62 62 62 63 66 66 66 65 67 65 65 62 62 66 66 65 61 58 58 60 61 62 63 64 64 65 65 66 66
56 56 55 55 55 55 55 56 56 55 55 55 55 55 55 55 55 55 55 55 55 55 55 55 56 56 57 57 56 55 45 34 40 41 73 74 70 64 68 70 70 59 47 38 40 43 46 46 47 48 51 54 49 59 60 64 64 58 60 60 60 60 64 67 65 65 66 65 65 64 63 64 64 64 65 67 61 62 62 62 63 64 65 65 66 66 66 66
55 55 55 55 55 55 55 55 55 55 55 55 55 55 55 55 55 55 55 55 55 55 56 55 56 56 57 58 55 53 39 27 39 36 68 75 72 67 69 69 69 50 41 36 37 42 44 44 47 48 50 49 47 56 60 62 63 60 58 59 61 59 64 65 66 65 65 65 63 66 64 63 63 61 65 64 66 67 64 62 63 64 65 66 65 66 66 65
55 55 55 55 55 55 55 55 55 55 56 55 55 55 55 55 55 55 55 55 55 55 55 56 56 57 58 55 50 38 40 29 30 47 69 73 69 65 68 66 50 44 38 34 35 39 43 42 47 49 49 46 40 48 53 61 62 59 57 59 58 59 65 66 66 66 65 66 67 66 64 64 63 63 65 64 66 64 60 62 63 64 65 65 65 65 65 65
55 55 55 55 55 55 55 55 55 55 55 55 55 55 55 55 55 55 55 55 55 55 56 56 56 57 57 54 44 31 24 36 44 62 69 66 62 65 62 61 44 40 37 33 34 35 45 45 44 48 48 48 48 39 60 58 58 59 59 58 60 62 63 65 65 66 65 66 67 65 63 64 64 65 64 65 66 61 61 62 63 64 64 65 64 64 64 64
55 55 55 55 55 55 55 55 55 55 55 55 55 55 55 55 55 55 55 55 55 55 55 56 57 57 55 53 42 19 26 47 64 65 62 63 62 59 54 54 41 37 34 33 32 33 42 45 47 48 49 45 42 34 59 56 55 59 58 59 62 63 63 64 64 65 66 66 66 63 63 62 65 64 59 64 65 60 60 61 63 63 63 63 63 63 63 63
55 55 55 55 55 55 55 55 55 55 55 55 55 55 54 55 55 55 55 55 55 56 55 56 57 56 51 52 17 7 23 49 60 57 59 60 56 53 49 50 41 35 34 33 30 31 38 47 48 48 49 44 32 29 58 56 45 58 58 61 62 62 63 64 64 65 65 65 67 64 63 65 64 63 59 62 64 60 60 61 62 62 62 62 62 62 63 63
55 55 55 55 55 55 55 55 55 55 55 55 55 54 54 54 54 55 55 55 55 56 56 57 58 56 54 50 36 15 33 45 58 54 56 54 52 50 46 49 42 36 34 31 31 30 33 41 48 50 45 47 38 29 39 45 32 57 57 60 60 60 60 63 63 65 64 64 66 65 62 60 61 60 61 62 64 60 60 60 61 61 61 61 61 61 62 62
55 55 55 55 55 55 55 55 55 55 55 55 54 54 54 55 54 55 55 55 56 57 57 58 57 56 53 31 37 40 38 43 50 53 52 51 44 46 44 46 43 39 35 29 27 29 31 35 44 49 50 48 33 26 32 34 31 56 56 59 59 59 59 61 64 65 64 64 66 66 55 58 61 63 66 64 64 59 59 59 59 59 59 60 60 60 61 62
55 55 55 55 55 55 55 55 55 55 55 54 54 54 54 54 54 54 55 55 56 57 58 58 56 54 48 32 32 42 43 36 48 50 48 49 41 43 41 41 43 39 35 34 40 43 40 43 46 47 44 41 35 31 30 30 49 53 55 55 56 57 57 61 62 64 62 65 65 66 55 57 61 63 65 67 65 58 57 58 58 58 58 59 59 59 60 61
55 55 55 55 55 55 55 55 55 55 54 54 54 54 54 54 54 55 56 56 57 59 60 58 56 52 45 39 39 41 58 36 39 43 44 38 33 33 37 34 39 38 33 33 38 40 41 41 39 36 31 35 34 29 28 28 35 54 52 50 52 55 57 60 63 63 60 62 65 62 55 57 61 62 66 66 65 60 57 57 57 57 57 58 58 58 59 60
55 56 55 55 55 55 55 55 55 55 54 54 54 54 54 54 55 56 57 57 58 59 58 54 54 52 38 30 26 44 48 35 33 36 39 37 29 29 31 31 32 32 30 30 32 35 36 41 35 30 29 32 28 27 28 27 31 51 50 49 51 53 56 57 62 63 62 62 63 62 57 59 60 64 65 65 63 60 57 57 57 57 57 57 57 57 58 59
56 56 56 55 55 55 55 55 55 54 54 54 54 54 54 55 56 57 58 59 58 58 56 49 49 54 24 28 35 36 40 44 42 34 34 34 29 32 31 27 26 25 27 29 33 34 35 34 33 37 29 27 28 28 27 28 31 49 39 50 51 53 55 54 59 62 62 61 59 61 60 58 61 63 65 64 64 60 57 57 57 57 57 57 57 57 57 57
55 55 55 55 55 55 55 55 55 54 54 53 53 53 52 54 57 57 58 58 57 58 56 55 49 44 34 31 26 34 36 36 38 36 33 34 31 33 32 31 33 27 30 30 33 30 33 29 29 26 24 27 26 26 27 26 28 41 38 47 50 54 56 55 56 58 61 60 58 60 60 58 61 62 64 63 64 61 57 57 57 57 57 57 57 57 56 55
55 55 55 55 55 55 55 55 54 54 53 53 53 54 55 55 55 51 47 52 46 35 27 39 37 32 4 14 25 31 31 37 35 37 35 32 35 35 36 36 31 29 32 31 31 31 30 27 28 28 25 24 24 24 25 27 30 33 41 47 50 52 53 53 56 60 60 58 58 58 56 58 60 62 63 63 65 60 57 57 57 57 57 57 57 56 55 54
56 55 55 55 55 55 55 54 54 53 52 51 49 52 52 43 42 44 49 48 43 34 29 34 36 36 32 30 28 29 33 34 32 32 35 33 36 33 34 34 30 30 31 31 29 30 28 25 25 24 24 24 24 25 25 25 25 25 28 49 50 50 52 54 56 60 60 58 58 58 57 59 60 61 61 64 64 63 61 57 57 57 57 56 56 55 54 53
55 55 55 55 54 54 54 54 53 53 52 50 49 45 38 41 31 30 39 42 43 41 36 34 36 32 31 33 34 34 32 29 32 31 33 43 34 32 31 31 30 29 27 30 27 30 27 27 24 25 25 24 24 23 24 24 23 23 24 48 49 50 50 52 54 59 59 55 56 59 58 59 60 61 62 63 63 61 63 57 56 56 56 56 55 54 52 52
55 55 55 54 54 54 54 53 53 52 51 49 49 36 38 40 37 35 33 29 31 40 40 37 38 36 37 35 35 37 38 36 30 30 34 33 31 30 30 26 27 27 26 24 25 25 28 25 25 25 25 25 25 22 21 21 20 22 21 35 47 48 50 53 57 58 58 56 58 59 58 59 60 60 61 62 62 64 65 64 56 56 56 55 55 52 51 52
55 55 55 54 54 53 53 52 52 51 50 49 46 45 40 37 39 39 33 30 29 34 40 41 40 39 39 41 41 39 36 34 29 30 32 34 31 32 29 25 25 25 25 24 23 26 26 24 25 26 26 24 23 23 20 20 19 17 20 35 43 47 49 49 55 58 57 57 58 56 55 57 60 62 62 63 63 63 64 64 64 61 56 55 54 52 51 52
55 55 55 54 54 53 53 51 50 51 49 46 44 43 41 41 40 38 30 28 27 28 31 35 38 40 39 35 35 37 35 32 30 29 44 33 31 34 28 26 23 24 22 23 22 22 22 23 25 25 25 23 22 22 20 17 15 16 16 19 27 43 48 49 54 56 57 58 57 56 55 55 58 58 59 63 64 64 64 65 63 62 65 62 58 56 52 52
55 55 55 54 53 53 51 51 48 48 46 46 44 44 43 41 43 38 30 29 25 27 31 30 34 33 34 33 30 30 30 28 30 32 40 33 31 30 29 30 26 24 24 23 23 21 20 21 23 22 23 23 22 20 19 16 14 14 14 14 17 35 47 52 55 53 53 54 57 54 49 51 56 58 59 61 63 62 63 62 62 60 63 65 61 58 57 53
55 55 55 54 53 52 51 45 46 46 45 42 40 40 40 40 41 35 31 25 20 21 23 26 27 26 19 18 30 28 25 24 28 28 34 31 38 29 30 27 27 24 25 24 22 21 21 22 20 20 20 21 20 19 20 16 15 16 15 15 15 34 49 53 52 51 51 50 54 55 48 48 55 56 59 61 61 60 62 62 62 62 62 63 63 62 61 55
54 54 54 53 53 51 39 37 45 46 39 37 38 41 42 41 43 34 31 28 21 24 22 24 23 19 16 22 24 23 19 18 23 32 33 42 32 35 26 26 29 30 27 26 24 19 20 19 19 20 20 19 19 18 19 16 16 17 18 19 16 36 49 52 51 50 50 55 55 55 53 49 49 52 57 61 60 60 61 62 62 62 61 62 63 64 63 60
54 54 53 52 51 51 45 48 46 40 37 38 43 42 42 44 39 34 32 21 19 23 17 18 17 20 17 16 25 21 19 17 20 25 31 36 30 28 26 24 23 23 23 23 20 22 20 19 17 17 19 18 17 18 19 18 16 17 23 25 24 40 48 50 50 48 50 52 51 53 52 47 46 51 57 59 58 59 59 60 61 61 61 61 62 63 63 63
54 53 53 52 51 50 51 49 47 40 42 45 44 43 42 43 33 31 28 20 20 19 19 18 18 19 17 17 17 19 18 20 15 20 30 30 28 26 24 25 23 22 22 18 15 14 19 19 18 16 16 16 18 18 17 17 16 17 20 29 36 42 47 48 48 45 49 50 49 51 50 44 43 51 57 59 58 58 58 59 60 60 60 61 62 62 63 64
53 52 52 52 49 50 50 51 47 45 47 46 44 43 44 40 35 32 24 14 18 14 18 17 13 14 17 13 15 17 19 17 23 26 26 28 28 20 24 27 24 21 18 17 14 13 13 37 39 17 15 16 16 17 17 16 16 30 25 28 41 46 44 44 46 49 48 43 47 51 51 46 43 52 55 56 56 58 58 59 60 60 60 61 62 61 62 63
52 52 51 51 46 48 49 36 37 45 48 46 43 42 40 39 36 28 17 12 23 15 16 14 12 15 13 12 11 15 17 16 16 25 24 21 16 20 20 17 16 18 19 18 14 15 17 17 23 27 25 20 17 17 16 16 16 17 19 28 34 36 46 47 47 47 42 38 40 48 50 47 40 45 55 57 57 58 59 58 59 60 59 60 61 61 61 63
51 50 51 49 49 51 39 32 37 41 43 44 45 39 35 28 26 19 18 27 15 11 13 12 15 13 14 16 14 15 13 13 16 21 23 21 16 18 16 18 19 19 13 17 11 17 15 15 18 20 46 18 17 15 16 22 25 23 27 28 29 33 38 37 42 40 38 38 39 47 48 46 45 46 53 55 57 58 59 59 60 60 60 60 60 61 61 64
50 50 50 51 52 49 49 43 45 45 46 47 42 37 33 26 15 23 25 18 14 13 8 14 12 13 13 12 12 14 14 10 12 16 22 15 15 15 16 17 17 11 14 25 13 13 14 18 20 20 24 33 19 15 23 21 24 24 24 28 26 29 33 32 35 37 32 34 43 47 48 45 47 50 55 56 57 57 58 59 60 60 61 61 61 61 62 64
50 50 49 50 51 49 48 52 50 46 45 49 38 35 23 18 19 48 30 19 11 14 14 11 14 12 11 9 10 12 13 12 12 13 17 16 13 15 13 14 16 14 15 18 8 11 14 14 17 24 25 27 23 19 23 22 24 23 26 25 26 28 28 29 32 31 30 34 44 46 46 42 43 45 55 56 58 58 59 60 61 62 62 62 62 63 64 64
50 49 49 51 51 51 50 49 47 49 45 39 35 31 21 20 25 20 18 13 12 13 12 13 11 11 11 10 11 12 10 11 15 12 13 12 11 13 13 10 12 16 15 9 20 26 14 17 21 25 24 27 26 28 27 25 25 27 29 28 26 25 32 28 30 31 37 42 41 44 44 49 50 54 57 58 59 59 60 60 61 62 63 64 64 64 64 64
49 48 47 46 51 48 50 49 47 45 40 36 35 26 22 24 15 15 12 16 14 14 13 12 9 8 10 10 13 9 13 9 9 12 13 12 13 15 16 13 14 12 7 9 22 18 26 19 19 20 20 23 25 31 29 25 21 26 27 26 27 30 28 31 40 39 43 43 41 47 46 50 54 53 56 57 58 59 60 60 61 62 63 62 63 64 65 65
49 50 41 43 43 50 49 47 46 44 41 38 32 27 30 30 20 16 38 12 12 16 14 10 11 10 11 10 11 12 9 8 9 10 12 14 16 15 16 15 17 17 12 15 21 19 16 17 18 19 18 24 26 29 28 29 27 28 27 28 31 32 29 28 29 34 37 38 40 46 45 45 46 45 55 56 57 58 59 60 61 62 63 63 63 64 66 66
50 50 51 50 45 45 48 47 44 40 38 35 33 43 39 17 21 18 16 15 13 16 15 15 15 13 14 14 12 13 11 10 12 7 13 16 14 17 17 17 17 19 16 20 19 21 18 16 17 19 18 20 22 23 21 24 26 19 18 25 22 30 27 30 34 33 35 40 42 44 45 45 45 45 52 54 56 57 59 59 60 61 62 62 63 65 66 66
51 43 36 38 43 47 47 46 41 42 35 33 34 27 42 23 19 19 20 19 16 17 16 17 16 17 15 15 15 14 15 11 15 16 20 17 17 18 17 18 18 20 19 22 18 25 24 15 20 22 19 18 19 23 22 22 20 21 18 16 27 29 31 26 25 28 41 40 41 42 45 41 48 49 54 55 57 58 59 60 60 61 61 61 62 63 64 64
39 35 35 41 42 47 48 40 37 33 33 27 28 35 29 18 20 19 20 20 16 15 21 19 20 18 18 18 15 15 18 19 17 20 18 19 16 18 17 19 20 19 22 24 22 22 22 24 17 16 19 17 17 23 21 21 18 19 18 18 19 28 30 22 27 39 40 41 40 42 42 44 47 53 55 56 57 58 59 59 60 60 61 62 63 64 64 64
46 37 37 41 43 46 37 33 30 31 29 32 30 26 24 26 21 19 20 20 19 19 17 18 19 17 19 19 17 19 20 20 18 18 18 17 17 17 20 19 21 17 21 20 20 24 21 23 21 22 16 16 12 19 19 20 18 18 18 19 17 20 18 21 24 31 42 41 39 42 40 42 49 56 57 57 58 57 58 58 59 60 61 62 63 64 65 64
41 37 36 42 36 36 33 30 29 33 27 27 23 22 24 39 19 18 20 20 20 19 23 21 22 20 22 21 20 19 21 22 21 19 19 15 18 16 16 19 22 22 18 20 20 23 26 31 28 22 20 17 17 19 23 20 19 16 13 13 17 21 22 21 18 26 42 42 44 42 41 41 54 57 58 58 58 58 58 59 59 59 60 61 62 63 63 64
41 39 42 46 46 29 28 29 45 38 28 28 32 20 19 20 20 20 19 20 19 20 22 20 21 23 23 21 21 20 20 19 21 19 20 21 20 18 19 19 21 19 19 17 25 24 47 27 26 30 31 31 24 19 23 26 22 15 15 17 14 13 16 20 28 36 41 42 41 40 41 45 55 58 57 57 58 58 59 58 58 59 60 60 60 61 61 63
42 43 44 48 40 30 27 27 28 30 36 30 21 20 21 20 20 20 19 20 23 20 23 22 19 23 24 23 23 26 25 19 19 21 21 23 17 20 23 19 18 16 16 14 22 22 26 30 27 28 29 31 28 23 20 22 23 23 21 19 23 30 35 33 42 43 41 42 42 39 39 46 54 57 57 58 57 57 57 58 58 58 58 58 59 60 61 62
47 46 47 48 46 28 25 27 27 30 31 28 22 17 19 19 22 23 22 21 21 20 23 22 22 23 22 24 26 29 28 20 24 26 22 24 24 23 14 15 18 14 25 33 49 42 24 32 34 26 23 20 20 18 18 19 20 24 24 19 27 38 39 38 36 39 34 41 42 42 44 50 55 56 56 57 57 57 58 57 57 57 56 56 57 58 60 60
42 34 39 40 40 30 30 32 27 27 30 32 25 19 19 19 20 22 23 23 24 23 25 27 25 26 27 26 27 30 28 29 27 30 32 29 29 22 17 13 20 34 54 51 52 36 30 38 35 34 31 26 27 29 29 38 20 16 23 17 16 27 37 41 41 38 35 41 41 41 46 49 52 54 55 55 56 56 56 57 56 56 56 56 56 56 57 58
46 37 38 40 42 32 30 23 23 25 24 29 24 20 20 20 21 22 22 24 24 25 26 28 31 28 29 30 33 32 35 29 33 30 30 32 31 28 26 23 24 43 53 39 46 36 35 28 27 37 35 31 28 33 26 34 17 15 16 23 20 29 37 39 36 35 42 41 37 44 50 50 51 53 54 55 54 54 55 56 56 56 56 56 56 56 58 57
36 40 43 45 30 31 31 28 26 32 34 25 27 25 21 18 18 22 20 23 26 24 27 29 30 32 34 32 35 32 34 35 34 31 31 30 32 27 27 27 25 38 37 23 35 31 29 26 30 29 27 23 23 22 20 16 16 17 19 23 21 27 39 37 41 42 42 38 37 45 50 49 51 53 54 54 54 53 54 54 55 55 55 54 54 54 55 56
45 45 44 48 37 40 32 36 35 28 34 35 37 25 20 19 21 21 24 20 22 21 29 31 30 31 31 32 33 32 34 33 29 40 33 29 30 29 27 29 27 28 26 26 28 40 28 28 37 30 28 26 25 24 21 18 17 15 14 15 25 32 39 43 43 44 44 43 43 49 49 49 52 53 54 54 54 53 53 54 55 54 53 54 52 52 53 54
41 44 45 49 48 46 47 37 36 24 23 39 24 28 26 30 27 27 21 21 26 21 26 30 31 29 29 28 33 32 33 33 32 31 36 33 28 31 29 31 26 28 26 27 29 31 24 27 41 36 26 28 26 26 22 21 20 17 17 19 41 45 45 45 45 47 48 48 49 49 48 49 51 53 53 53 53 53 54 54 54 54 53 52 51 51 51 52
49 48 48 46 42 43 48 39 34 33 28 27 25 31 38 28 29 32 24 23 26 28 32 32 33 31 27 23 23 23 33 35 34 28 31 33 28 30 26 26 29 27 28 26 28 32 28 26 35 37 30 25 25 23 22 24 21 20 21 22 19 36 43 44 44 46 46 46 47 47 47 47 50 53 52 53 53 53 53 53 52 51 52 52 51 50 50 50
51 50 52 47 40 47 42 42 33 28 25 28 32 32 33 29 31 32 26 26 29 32 32 31 32 27 30 24 23 23 21 26 27 24 25 27 28 31 28 24 24 28 28 28 33 28 31 30 29 36 33 31 30 24 24 25 20 19 22 20 25 29 38 46 46 48 47 47 46 46 46 48 51 52 51 52 52 52 52 51 50 51 51 51 50 48 48 50